Regional Weather Roundup
Issued by NWS Charleston, WV

Home | Current Version | Previous Version | Graphics & Text | Print | Product List | Glossary On
Versions: 1 2 3 4 5 6 7 8 9 10 11 12 13 14 15 16 17 18 19 20 21 22 23 24 25 26 27 28 29 30 31 32 33 34 35 36 37 38 39 40 41 42 43 44 45 46 47 48 49 50
430
ASUS41 KRLX 211810
RWRRLX
West Virginia Regional Weather Roundup
National Weather Service Charleston WV
200 PM EDT THU SEP 21 2017

Note: "fair" indicates few or no clouds below 12,000 feet with no
significant weather and/or obstructions to visibility.

WVZ003-211900-
Northern Panhandle of West Virginia

CITY           SKY/WX    TMP DP  RH WIND       PRES   REMARKS
WHEELING       PTSUNNY   83  64  52 N5        30.11F
$$

WVZ009-211900-
Northwest West Virginia

CITY           SKY/WX    TMP DP  RH WIND       PRES   REMARKS
PARKERSBURG    MOSUNNY   83  66  56 NW3       30.13F
$$

WVZ006-211900-
Western West Virginia

CITY           SKY/WX    TMP DP  RH WIND       PRES   REMARKS
HUNTINGTON     MOSUNNY   83  66  56 CALM      30.10F
$$

WVZ015-211900-
West Central West Virginia

CITY           SKY/WX    TMP DP  RH WIND       PRES   REMARKS
CHARLESTON     MOSUNNY   84  65  52 CALM      30.10F
$$

WVZ022-031-211900-
North Central West Virginia

CITY           SKY/WX    TMP DP  RH WIND       PRES   REMARKS
CLARKSBURG     MOSUNNY   83  64  52 MISG      30.12F
MORGANTOWN     MOSUNNY   84  62  47 VRB5      30.12F
$$

WVZ025-035-042-045-211900-
Southern West Virginia

CITY           SKY/WX    TMP DP  RH WIND       PRES   REMARKS
BECKLEY        PTSUNNY   77  62  59 NW7       30.17F
LOGAN            N/A     82  64  54 VRB6      30.14F
BLUEFIELD      PTSUNNY   76  58  53 N5        30.19F
LEWISBURG      PTSUNNY   77  59  52 CALM      30.15S
$$

WVZ047-211900-
Northern Mountains of West Virginia

CITY           SKY/WX    TMP DP  RH WIND       PRES   REMARKS
ELKINS         SUNNY     80  58  46 NW7       30.15F
$$

WVZ052-211900-
Eastern Panhandle of West Virginia

CITY           SKY/WX    TMP DP  RH WIND       PRES   REMARKS
MARTINSBURG    SUNNY     85  60  42 NE9       30.06F
PETERSBURG     MOSUNNY   88  62  41 E6        30.09F
$$




USA.gov is the U.S. government's official web portal to all federal, state and local government web resources and services.